Location: Banios
(43.0451°N, 0.2335°E)
Time: 13:07:06
(UTC+00:00)

Cosmos 1953 - Pass Details

Date: 25 January 2021
Orbit: 539 x 556 km, 82.5° (Epoch: 25 February)

Event Time Altitude Azimuth Distance (km) Brightness Sun altitude
Exits shadow 05:40:29 16° 345° (NNW) 1,466 4.2 -18.3°
Drops below altitude 10° 05:41:26 10° 352° (N) 1,811 4.8 -18.1°
Sets 05:43:43 0° 1° (N) 2,707 5.8 -17.7°
